Flight Track Log - Related Links

Times and Time Zones

All times are in EDT time to prevent confusion due to time zone crossing. See the EJA929 flight status page for this flight to view local times or setup timezone preferences in your user account.

Time Position Orientation Groundspeed Altitude Reporting Facility
EDT Latitude Longitude Course Direction KTS MPH feet Rate Location/Type
Sun 03:39:14 PM 42.9500 -87.9000 48° Northeast 178 205 1,600  Level KMKE
Sun 03:40:09 PM 42.9833 -87.8500 48° Northeast 226 260 4,900 2,817 Climbing KMKE
Sun 03:41:09 PM 42.9500 -87.7667 119° Southeast 260 299 7,000 1,050 Climbing KMKE
Sun 03:42:09 PM 42.8833 -87.7167 151° Southeast 284 327 7,000  Level KMKE
Sun 03:43:15 PM 42.8000 -87.6833 164° South 271 312 7,000  Level KMKE
Sun 03:44:21 PM 42.7228 -87.6581 166° South 264 304 7,000  Level Chicago Center
Sun 03:45:23 PM 42.6514 -87.6408 170° South 260 299 7,000  Level Chicago Center
Sun 03:46:25 PM 42.5797 -87.6347 176° South 257 296 7,000  Level Chicago Center
Sun 03:47:27 PM 42.5053 -87.6239 174° South 266 306 7,000  Level Chicago Center
Sun 03:48:29 PM 42.4250 -87.6089 172° South 288 331 7,000 -194 Level Chicago Center
Sun 03:49:31 PM 42.3364 -87.5764 165° South 283 326 6,600 -484 Descending Chicago Center
Sun 03:50:33 PM 42.2736 -87.5478 161° South 277 319 6,000 -774 Descending Chicago Center
Sun 03:51:35 PM 42.1861 -87.5142 164° South 273 314 5,000 -823 Descending Chicago Center
Sun 03:52:37 PM 42.1181 -87.4792 159° South 266 306 4,300 -480 Descending Chicago Center
Sun 03:53:40 PM 42.0556 -87.4378 154° Southeast 258 297 4,000 -144 Descending Chicago Center
Sun 03:54:42 PM 42.0122 -87.4619 203° Southwest 222 255 4,000  Level Chicago Center
Sun 03:55:44 PM 41.9997 -87.5264 255° West 193 222 4,000  Level Chicago Center
Sun 03:56:46 PM 42.0019 -87.6056 272° West 181 208 4,000  Level Chicago Center
Sun 03:57:48 PM 42.0028 -87.6711 271° West 179 206 4,000 -435 Level Chicago Center
Sun 03:58:50 PM 42.0022 -87.7369 269° West 178 205 3,100 -871 Descending Chicago Center
Sun 03:59:52 PM 42.0022 -87.8019 270° West 178 205 2,200 -576 Descending Chicago Center
Sun 04:00:55 PM 42.0014 -87.8622 269° West 170 196 1,900 -286 Descending Chicago Center
Sun 04:02:00 PM 41.9667 -87.9000 169° South  Level FlightAware Approximate

Login

Don't have an account? Register now (free) for customized features, flight alerts, and more!